{"data":{"norad_id":64071,"intl_designator":"2025-107H","name":"STARLINK-11719 [DTC]","alt_names":[],"object_type":"PAYLOAD","status":"ACTIVE","operator":null,"country":"US","launch_date":"2025-05-21","launch_site_code":"AFETR","launch_vehicle":null,"mission":null,"orbit_class":"UNKNOWN","rcs_meters":null,"size_class":null,"mass_kg":null,"dimensions":null,"purposes":["comms"],"wikipedia_slug":null,"has_3d_model":false,"image_url":null,"decayed_at":null,"tle_current":{"epoch":"2026-05-24T23:44:22.413120Z","epoch_age_seconds":79054,"freshness":"FRESH","line1":"1 64071U 25107H   26144.98914830  .00150024  00000+0  11501-2 0  9993","line2":"2 64071  43.0002 358.7132 0001511 265.4404  94.6291 15.70872761 59291","mean_motion":15.70872761,"eccentricity":0.0001511,"inclination_deg":43.0002,"raan_deg":358.7132,"arg_perigee_deg":265.4404,"mean_anomaly_deg":94.6291,"bstar":0.0011501,"rev_number":5929,"period_min":91.6687866612,"perigee_km":355.38383737041,"apogee_km":357.41901488279,"semimajor_km":6734.5384261266,"source":"CELESTRAK","updated_at":"2026-05-25T13:38:20.258909Z"}}}